HELLAS-SAT 3 (42814 NORAD) Tracking and Keplerian Element Data

This shows tracking and keplerian element data for the satellite.

Feedback or suggestion? Click here.




ElementValue
Catalog42814
NameHELLAS-SAT 3
Epoch Orbit1551
Epoch Day268.69463255
Epoch Year2021
RAAN15.2224
Inclination0.0639
Eccentricity0.0001035
Argument of Perigee108.8887
Mean Anonmoly169.6856
Mean Motion1.0027075
Decay Rate1.49E-06
L11 42814U 17040A 21268.69463255 .00000149 00000-0 00000-0 0 9994
L22 42814 0.0639 15.2224 0001035 108.8887 169.6856 1.00270750 15519

Live tracking and technical data element details for HELLAS-SAT 3 (NORAD 42814). HELLAS-SAT 3 can be tracked NOW for your location showing map with azimuth and elevation plus other details from your city location.

Track the satellite on the map from your city or location and see movement details for azimuth, elevation, latitude, longitude, range, height, and movement on the map or in text.







IsCatalogInMostPopularTable: catalog: 42814, numindb: 548
Update: records affected: 1



GetName: 42814 HELLAS-SAT 3

Hit Count: updated at: Mon, 27 Sep 2021 01:43:52 GMT